W4ALE Weather Reports


Display with metric or nautical units.
time (UTC)temp
F
wind
direction
speed
MPH
gust
MPH
rain 1hr
in
rain 24hr
in
rain mn
in
humidity
%
barometer
mb
20210804225341 79 46 2.0 6.0 0.00 0.00 0.00 65 1017.1
20210804224340 80 74 2.0 6.0 0.00 0.00 0.00 64 1017.1
20210804223342 80 54 1.0 3.0 0.00 0.00 0.00 64 1017.0
20210804222341 79 30 1.0 3.0 0.00 0.00 0.00 65 1017.1
20210804221341 79 71 0.0 3.0 0.00 0.00 0.00 67 1017.0
20210804220340 79 62 0.0 5.0 0.00 0.00 0.00 64 1017.0
20210804215342 80 56 2.0 6.0 0.00 0.00 0.00 62 1017.0
20210804214340 81 71 3.0 7.0 0.00 0.00 0.00 61 1016.9
20210804213340 80 6 1.0 3.0 0.00 0.00 0.00 61 1016.9
20210804212340 81 112 2.0 7.0 0.00 0.00 0.00 61 1016.9
20210804211340 81 81 2.0 5.0 0.00 0.00 0.00 62 1016.8
20210804210341 81 57 1.0 7.0 0.00 0.00 0.00 61 1016.9
20210804205340 81 78 4.0 7.0 0.00 0.00 0.00 59 1016.9
20210804204339 80 91 2.0 5.0 0.00 0.00 0.00 62 1016.9
20210804203339 81 51 3.0 6.0 0.00 0.00 0.00 58 1016.9
20210804202340 81 46 4.0 8.0 0.00 0.00 0.00 59 1017.0
20210804201340 80 68 3.0 5.0 0.00 0.00 0.00 61 1017.1
20210804200340 81 74 1.0 7.0 0.00 0.00 0.00 58 1017.2
20210804195340 82 43 3.0 8.0 0.00 0.00 0.00 58 1017.1
20210804194339 81 109 2.0 7.0 0.00 0.00 0.00 60 1017.2
20210804193339 81 40 3.0 6.0 0.00 0.00 0.00 58 1017.3
20210804192340 81 34 2.0 6.0 0.00 0.00 0.00 60 1017.3
20210804191340 80 88 2.0 7.0 0.00 0.00 0.00 60 1017.5
20210804190340 80 121 1.0 3.0 0.00 0.00 0.00 62 1017.6
20210804185339 80 73 1.0 3.0 0.00 0.00 0.00 60 1017.6
20210804184340 82 86 2.0 6.0 0.00 0.00 0.00 58 1017.8
20210804183340 81 79 2.0 5.0 0.00 0.00 0.00 59 1017.7
20210804182339 80 103 3.0 9.0 0.00 0.00 0.00 63 1017.9
20210804181339 79 105 3.0 10.0 0.00 0.00 0.00 62 1018.0
20210804180339 79 52 3.0 8.0 0.00 0.00 0.00 61 1018.0
20210804175339 79 71 3.0 9.0 0.00 0.00 0.00 67 1018.1
20210804174339 78 75 3.0 7.0 0.00 0.00 0.00 65 1018.3
20210804173339 79 86 3.0 9.0 0.00 0.00 0.00 62 1018.4
20210804172340 79 95 2.0 7.0 0.00 0.00 0.00 61 1018.5
20210804171338 79 3 3.0 7.0 0.00 0.00 0.00 62 1018.6
20210804170338 79 59 2.0 7.0 0.00 0.00 0.00 66 1018.5
20210804165338 78 44 3.0 7.0 0.00 0.00 0.00 64 1018.6
20210804164339 78 94 3.0 10.0 0.00 0.00 0.00 65 1018.5
20210804163339 78 118 3.0 10.0 0.00 0.00 0.00 65 1018.6
20210804162339 78 70 4.0 9.0 0.00 0.00 0.00 65 1018.5
20210804161338 77 96 3.0 8.0 0.00 0.00 0.00 66 1018.5
20210804160338 77 46 3.0 7.0 0.00 0.00 0.00 67 1018.6
20210804155337 76 265 2.0 6.0 0.00 0.00 0.00 70 1018.6
20210804154339 76 70 3.0 7.0 0.00 0.00 0.00 71 1018.6
20210804153338 75 85 3.0 7.0 0.00 0.00 0.00 73 1018.6
20210804152338 75 27 4.0 10.0 0.00 0.00 0.00 72 1018.6
20210804151339 74 81 3.0 8.0 0.00 0.00 0.00 74 1018.6
20210804150338 74 43 4.0 9.0 0.00 0.00 0.00 74 1018.5
20210804145337 74 23 2.0 5.0 0.00 0.00 0.00 76 1018.5
20210804144339 74 96 3.0 7.0 0.00 0.00 0.00 77 1018.6
20210804143338 73 99 3.0 7.0 0.00 0.00 0.00 77 1018.6
20210804142338 73 80 2.0 7.0 0.00 0.00 0.00 80 1018.6
20210804141338 72 15 2.0 6.0 0.00 0.00 0.00 82 1018.7
20210804140338 71 40 3.0 7.0 0.00 0.00 0.00 82 1018.7
20210804135337 71 39 5.0 9.0 0.00 0.00 0.00 84 1018.6
20210804134337 70 32 3.0 8.0 0.00 0.00 0.00 86 1018.5
20210804133338 70 24 3.0 6.0 0.00 0.00 0.00 87 1018.6
20210804132337 70 46 3.0 7.0 0.00 0.00 0.00 87 1018.6
20210804131337 70 30 3.0 8.0 0.00 0.00 0.00 88 1018.6
20210804130337 70 33 2.0 9.0 0.00 0.00 0.00 88 1018.5
20210804125337 70 58 3.0 6.0 0.00 0.00 0.00 90 1018.3
20210804124337 69 352 2.0 6.0 0.00 0.00 0.00 90 1018.1
20210804123337 69 40 2.0 6.0 0.00 0.00 0.00 90 1018.1
20210804122336 69 46 1.0 3.0 0.00 0.00 0.00 91 1018.0
20210804121337 68 82 2.0 5.0 0.00 0.00 0.00 91 1017.9
20210804120337 68 21 1.0 3.0 0.00 0.00 0.00 91 1017.8
20210804115337 68 30 1.0 6.0 0.00 0.00 0.00 91 1017.8
20210804114338 68 53 1.0 2.0 0.00 0.00 0.00 91 1017.7
20210804113336 68 48 0.0 2.0 0.00 0.00 0.00 90 1017.6
20210804112336 68 90 1.0 3.0 0.00 0.00 0.00 90 1017.5
20210804111337 68 74 1.0 3.0 0.00 0.00 0.00 89 1017.3
20210804110336 68 297 1.0 5.0 0.00 0.00 0.00 88 1017.3
20210804105337 68 42 2.0 5.0 0.00 0.00 0.00 88 1017.2
20210804104337 68 76 2.0 6.0 0.00 0.00 0.00 88 1017.0
20210804103336 68 79 2.0 3.0 0.00 0.00 0.00 88 1016.9
20210804102336 68 54 1.0 7.0 0.00 0.01 0.00 88 1016.7
20210804101335 68 59 3.0 6.0 0.00 0.01 0.00 88 1016.5
20210804100336 68 61 3.0 7.0 0.00 0.01 0.00 89 1016.5
20210804095336 68 67 2.0 5.0 0.00 0.01 0.00 90 1016.5
20210804094335 68 65 2.0 6.0 0.00 0.01 0.00 90 1016.6
20210804093336 68 67 1.0 6.0 0.00 0.01 0.00 91 1016.5
20210804092336 68 31 1.0 5.0 0.00 0.01 0.00 91 1016.4
20210804091336 69 74 3.0 7.0 0.00 0.01 0.00 92 1016.3
20210804090335 69 53 2.0 6.0 0.00 0.01 0.00 93 1016.3
20210804085335 69 75 2.0 6.0 0.00 0.01 0.00 94 1016.3
20210804084336 69 101 2.0 7.0 0.00 0.01 0.00 94 1016.2
20210804083335 69 68 2.0 6.0 0.00 0.01 0.00 95 1016.2
20210804082336 69 53 2.0 7.0 0.00 0.01 0.00 96 1016.1
20210804081340 69 70 2.0 5.0 0.00 0.01 0.00 96 1016.0
20210804080335 69 63 1.0 5.0 0.00 0.01 0.00 96 1016.0
20210804075335 69 51 1.0 2.0 0.00 0.01 0.00 96 1016.1
20210804074335 69 88 1.0 3.0 0.00 0.01 0.00 96 1016.1
20210804073335 69 47 1.0 5.0 0.00 0.01 0.00 96 1016.1
20210804072336 70 84 2.0 5.0 0.00 0.02 0.00 96 1016.1
20210804071335 69 47 2.0 5.0 0.00 0.02 0.00 96 1016.1
20210804070335 70 22 1.0 3.0 0.00 0.02 0.00 96 1016.1
20210804065334 70 46 1.0 5.0 0.00 0.02 0.00 96 1016.1
20210804064335 70 37 0.0 0.0 0.00 0.02 0.00 96 1016.1
20210804063334 70 37 0.0 2.0 0.00 0.02 0.00 96 1016.0
20210804062335 70 26 1.0 2.0 0.00 0.02 0.00 96 1016.0
20210804061335 70 70 1.0 3.0 0.00 0.02 0.00 96 1016.1
20210804060334 70 83 2.0 8.0 0.00 0.02 0.00 96 1016.0
20210804055335 70 42 1.0 6.0 0.00 0.03 0.00 96 1016.1
20210804054334 70 34 1.0 5.0 0.00 0.03 0.00 96 1016.2
20210804053335 70 41 0.0 3.0 0.00 0.03 0.00 96 1016.4
20210804052334 70 349 1.0 3.0 0.00 0.03 0.00 96 1016.5
20210804051334 70 8 1.0 6.0 0.00 0.04 0.00 96 1016.5
20210804050334 70 32 1.0 5.0 0.00 0.04 0.00 96 1016.4
20210804045334 70 16 1.0 5.0 0.00 0.04 0.00 96 1016.4
20210804044334 71 27 1.0 3.0 0.00 0.05 0.00 96 1016.4
20210804043334 71 18 1.0 3.0 0.00 0.05 0.00 96 1016.5
20210804042334 71 13 0.0 3.0 0.00 0.06 0.00 96 1016.4
20210804041333 71 54 0.0 2.0 0.00 0.06 0.00 96 1016.4
20210804040333 71 16 0.0 2.0 0.00 0.06 0.00 96 1016.5
20210804035334 71 27 0.0 2.0 0.00 0.06 0.00 96 1016.5
20210804034333 71 342 0.0 2.0 0.00 0.06 0.00 95 1016.5
20210804033334 71 58 0.0 2.0 0.00 0.06 0.00 95 1016.5
20210804032333 71 26 1.0 3.0 0.00 0.06 0.00 95 1016.5
20210804031333 71 19 1.0 3.0 0.00 0.06 0.00 95 1016.5
20210804030334 71 85 0.0 0.0 0.00 0.06 0.00 95 1016.6
20210804025333 71 85 0.0 1.0 0.00 0.06 0.00 95 1016.6
20210804024334 71 36 1.0 2.0 0.00 0.06 0.00 95 1016.5
20210804023334 71 95 1.0 3.0 0.00 0.06 0.00 95 1016.5
20210804022333 71 62 0.0 2.0 0.00 0.06 0.00 95 1016.5
20210804021333 71 40 0.0 2.0 0.00 0.06 0.00 94 1016.5
20210804020333 71 354 0.0 5.0 0.00 0.06 0.00 94 1016.4
20210804015333 71 59 1.0 5.0 0.00 0.06 0.00 94 1016.2
20210804014333 71 62 1.0 5.0 0.00 0.06 0.00 94 1016.2
20210804013333 71 100 2.0 6.0 0.00 0.06 0.00 93 1016.1
20210804012333 71 87 2.0 3.0 0.00 0.06 0.00 93 1016.1
20210804011334 71 12 1.0 2.0 0.00 0.06 0.00 92 1016.1
20210804010332 71 63 1.0 3.0 0.00 0.06 0.00 92 1016.1
20210804005333 71 30 1.0 3.0 0.00 0.06 0.00 91 1016.1
20210804004333 72 20 1.0 3.0 0.00 0.06 0.00 89 1016.1
20210804003333 72 4 1.0 1.0 0.00 0.06 0.00 88 1016.1
20210804002332 72 51 0.0 3.0 0.00 0.06 0.00 87 1016.2
20210804001332 72 342 1.0 5.0 0.00 0.06 0.00 86 1016.1
20210804000332 73 122 2.0 5.0 0.00 0.06 0.00 85 1016.3
20210803235332 73 319 2.0 3.0 0.00 0.06 0.00 84 1016.2
20210803234332 73 52 2.0 6.0 0.00 0.06 0.00 83 1016.1
20210803233333 74 31 2.0 8.0 0.00 0.06 0.00 82 1016.1
20210803232331 74 39 3.0 7.0 0.00 0.06 0.00 82 1015.9
20210803231332 74 32 2.0 8.0 0.00 0.06 0.00 83 1015.7
20210803230332 75 53 2.0 7.0 0.00 0.06 0.00 84 1015.5